Weather History for Clarksburg, WV

Change the Weather History Date:

Friday, November 2, 2012

  Actual Average Record
Temperature  
Mean Temperature 42 °F -  
Max Temperature 48 °F 63 °F 81 °F (2004)
Min Temperature 37 °F 39 °F 16 °F (1930)
Degree Days  
Heating Degree Days 24    
Moisture  
Dew Point 29 °F    
Average Humidity 62    
Maximum Humidity 76    
Minimum Humidity 47    
Precipitation  
Precipitation 0.00 in - - ()
Sea Level Pressure  
Sea Level Pressure 29.89 in    
Wind  
Wind Speed 7 mph (West)    
Max Wind Speed 17 mph    
Max Gust Speed 24 mph    
Visibility 10 miles    
Events      
Averages and records for this station are not official NWS values.
T = Trace of Precipitation, MM = Missing Value Source: NWS Daily Summary

Daily Weather History Graph

Daily Weather History Graph

Search for Another Location

Airport:

Trip Planner

Search our weather history database for the weather conditions in past years. The results will help you decide how hot, cold, wet, or windy it might be!

Date:

Astronomy

Nov. 02, 2012 Rise Set
Actual Time 7:50 AM EDT 6:17 PM EDT
Civil Twilight 7:22 AM EDT 6:45 PM EDT
Nautical Twilight 6:50 AM EDT 7:17 PM EDT
Astronomical Twilight 6:19 AM EDT 7:48 PM EDT
Moon 9:04 PM EDT (11/2) 11:08 AM EDT (11/2)
Length of Visible Light 11h 23m
Length of Day
10h 27m
Waning Gibbous, 87% of the Moon is Illuminated
Nov 2
Waning Gibbous
Nov 6
Last Quarter
Nov 13
New
Nov 20
First Quarter
Nov 28
Full

Hourly Weather History & Observations

Time (EDT) Temp. Windchill Dew Point Humidity Pressure Visibility Wind Dir Wind Speed Gust Speed Precip Events Conditions
12:53 AM 39.0 °F 35.7 °F 32.0 °F 76% 29.81 in 10.0 mi SSW 4.6 mph - N/A   Overcast
1:53 AM 39.0 °F 36.8 °F 30.0 °F 70% 29.79 in 10.0 mi South 3.5 mph - N/A   Overcast
2:53 AM 39.0 °F 35.7 °F 30.9 °F 73% 29.78 in 10.0 mi SW 4.6 mph - N/A   Overcast
3:53 AM 41.0 °F 38.0 °F 28.0 °F 60% 29.78 in 10.0 mi West 4.6 mph - N/A   Overcast
4:53 AM 39.0 °F 35.7 °F 28.9 °F 67% 29.78 in 10.0 mi SW 4.6 mph - N/A   Overcast
5:53 AM 39.0 °F 36.8 °F 28.0 °F 65% 29.78 in 10.0 mi WSW 3.5 mph - N/A   Mostly Cloudy
6:53 AM 37.9 °F 35.5 °F 28.0 °F 68% 29.80 in 10.0 mi West 3.5 mph - N/A   Overcast
7:53 AM 39.0 °F 36.8 °F 28.9 °F 67% 29.81 in 10.0 mi West 3.5 mph - N/A   Overcast
8:53 AM 39.0 °F 35.7 °F 28.9 °F 67% 29.84 in 10.0 mi West 4.6 mph - N/A   Overcast
9:53 AM 41.0 °F 35.2 °F 30.0 °F 65% 29.86 in 10.0 mi West 9.2 mph - N/A   Overcast
10:53 AM 43.0 °F 37.7 °F 30.9 °F 62% 29.87 in 10.0 mi WNW 9.2 mph - N/A   Clear
11:53 AM 45.0 °F 39.7 °F 30.9 °F 58% 29.88 in 10.0 mi WNW 10.4 mph - N/A   Mostly Cloudy
12:53 PM 44.1 °F 40.1 °F 30.0 °F 58% 29.89 in 10.0 mi West 6.9 mph - N/A   Mostly Cloudy
1:53 PM 45.0 °F 38.9 °F 28.9 °F 53% 29.88 in 10.0 mi WNW 12.7 mph - N/A   Mostly Cloudy
2:53 PM 46.0 °F 39.0 °F 27.0 °F 47% 29.90 in 10.0 mi West 17.3 mph 24.2 mph N/A   Overcast
3:53 PM 45.0 °F 40.6 °F 27.0 °F 49% 29.91 in 10.0 mi NW 8.1 mph 21.9 mph N/A   Overcast
4:53 PM 43.0 °F 36.0 °F 27.0 °F 53% 29.94 in 10.0 mi NW 13.8 mph 20.7 mph N/A   Overcast
5:53 PM 42.1 °F 35.7 °F 27.0 °F 55% 29.96 in 10.0 mi NW 11.5 mph - N/A   Overcast
6:53 PM 42.1 °F 36.6 °F 26.1 °F 53% 29.99 in 10.0 mi WNW 9.2 mph 18.4 mph N/A   Overcast
7:53 PM 42.1 °F 37.1 °F 27.0 °F 55% 30.00 in 10.0 mi WNW 8.1 mph - N/A   Overcast
8:53 PM 41.0 °F 34.7 °F 27.0 °F 57% 30.01 in 10.0 mi WNW 10.4 mph - N/A   Overcast
9:53 PM 41.0 °F 36.4 °F 28.9 °F 62% 30.01 in 10.0 mi NW 6.9 mph - N/A   Overcast
10:53 PM 39.9 °F 33.4 °F 28.9 °F 65% 30.01 in 10.0 mi NNW 10.4 mph - N/A   Overcast
11:53 PM 37.9 °F 31.5 °F 30.0 °F 73% 30.03 in 10.0 mi NNW 9.2 mph - N/A   Overcast